Regional Weather Roundup
Issued by NWS Kansas City/Pleasant Hill, MO

Home | Current Version | Previous Version | Graphics & Text | Print | Product List | Glossary Off
Versions: 1 2 3 4 5 6 7 8 9 10 11 12 13 14 15 16 17 18 19 20 21 22 23 24 25 26 27 28 29 30 31 32 33 34 35 36 37 38 39 40 41 42 43 44 45 46 47 48 49 50

000
ASUS43 KEAX 261110
RWREAX

WEATHER ROUNDUP FOR EASTERN KANSAS AND NORTHWEST MISSOURI
NATIONAL WEATHER SERVICE KANSAS CITY/PLEASANT HILL MO
600 AM CDT TUE JUL 26 2016

KSZ040-057-103>105-MOZ028-029-037-043-261200-
...KANSAS CITY METROPOLITAN AREA...

CITY           SKY/WX    TMP DP  RH WIND       PRES   REMARKS
K.C. INTL      CLEAR     69  67  93 NE6       30.07R
K.C. DOWNTOWN  CLEAR     72  67  84 NE3       30.05R
LEES SUMMIT    CLOUDY    71  69  93 NE5       30.06S
OLATHE - IXD   CLEAR     70  68  93 NE5       30.07R
OLATHE - OJC   CLEAR     70  67  90 NE6       30.06R
LAWRENCE       PTCLDY    66  65  96 NW3       30.05S

$$

MOZ001>008-011>017-020>025-030>033-038>040-044>046-053-054-261200-
...NORTHERN AND CENTRAL MISSOURI...

CITY           SKY/WX    TMP DP  RH WIND       PRES   REMARKS
ST. JOSEPH     CLEAR     66  64  93 N5        30.07R
MOSBY          SUNNY     64  64 100 CALM      30.06R
WHITEMAN AFB   PTCLDY    69  69 100 N2        30.04R
CLINTON        CLOUDY    70  70 100 CALM      30.04S
SEDALIA        CLOUDY    72  70  93 CALM      30.06R
WARSAW         NOT AVBL
CHILLICOTHE      N/A     67  65  93 CALM      30.08R
KIRKSVILLE     CLEAR     64  63  96 N5        30.08S

$$

MOZ041-047>049-056>058-063>065-088>090-097-261200-
...EASTERN AND SOUTHERN MISSOURI...

CITY           SKY/WX    TMP DP  RH WIND       PRES   REMARKS
ST. LOUIS INTL CLOUDY    77  72  84 N5        30.03R
SPIRIT OF STL  CLOUDY    76  73  91 CALM      30.01S
COLUMBIA       MOCLDY    71  69  93 NE7       30.05R
JEFFERSON CITY PTCLDY    70  68  93 W3        30.03R
ROLLA          CLOUDY    71  69  93 NE5       30.03S
OSAGE BEACH    CLOUDY    71  70  96 NE5       30.04S
SPRINGFIELD    CLOUDY    75  71  87 NE3       30.02S
BRANSON        FOG       72  72 100 CALM      30.04R VSB 1/2
JOPLIN         MOCLDY    74  72  93 NE3       30.01R
WEST PLAINS    CLOUDY    74  72  93 CALM      30.06R

$$

IAZ060-094-KSZ022-034>040-054-083-096-NEZ052-066-093-261200-
...KANSAS...SOUTHEAST NEBRASKA AND IOWA...

CITY           SKY/WX    TMP DP  RH WIND       PRES   REMARKS
TOPEKA         CLEAR     66  65  96 CALM      30.05S
MANHATTAN      CLEAR     66  64  93 CALM      30.06S
EMPORIA        CLOUDY    73  72  96 N3        30.06R
CHANUTE        CLOUDY    74  72  93 NE5       30.02S
WICHITA        CLOUDY    74  71  91 N7        30.04S
OMAHA          CLEAR     64  62  93 CALM      30.09R
LINCOLN        CLEAR     63  61  93 N3        30.09S
FALLS CITY     CLEAR     64  63  96 N5        30.07R
LAMONI         PTCLDY    64  62  93 N3        30.09S
DES MOINES     PTCLDY    69  66  90 CALM      30.08R

$$




USA.gov is the U.S. government's official web portal to all federal, state and local government web resources and services.